Wind_Speed
34 34 33 31 29 25 22 19 13 8 5 4 5 8 13 16 21 25 27 30 32 34 34 33 35 36 38 42 45 48 51 51 53 52 51 50 52 51 49 46 52 59 68
37 38 38 36 32 29 26 23 18 14 10 7 6 7 11 14 18 22 25 28 31 33 33 33 34 35 36 38 43 47 48 49 52 56 55 51 52 51 47 46 45 62 55
39 42 42 41 37 33 29 27 24 19 15 12 10 9 10 13 17 20 24 28 30 33 34 32 33 35 38 40 42 45 48 51 53 56 55 53 51 53 50 47 51 57 62
43 43 46 46 43 38 32 29 28 25 20 17 15 13 14 15 18 21 22 26 29 31 33 33 33 36 39 41 43 47 49 50 52 55 58 59 55 55 51 50 50 53 56
46 47 49 50 47 41 37 34 31 29 25 21 19 18 18 18 20 23 24 26 28 30 32 34 34 36 38 41 43 47 50 52 55 57 58 60 60 58 56 54 53 49 58
48 50 50 49 49 46 42 39 36 33 30 27 23 22 21 21 23 25 26 28 30 32 33 34 36 36 38 43 46 47 50 53 56 58 60 59 60 61 58 56 61 58 57
50 52 50 50 50 48 47 42 40 39 36 33 30 27 25 25 26 27 30 31 33 34 36 36 37 37 40 42 46 52 53 55 57 60 62 62 60 61 57 59 62 69 68
50 53 51 52 53 51 48 47 45 43 40 38 34 32 30 29 30 31 33 34 35 37 39 38 39 39 39 42 45 49 54 59 60 62 62 60 60 61 56 58 67 72 74
52 54 54 54 55 54 52 51 50 47 44 42 38 36 37 36 35 36 37 39 40 40 43 43 42 41 40 44 48 49 54 56 60 63 62 57 59 59 57 55 66 70 66
54 55 52 50 51 53 53 54 54 50 48 45 43 41 41 41 39 41 41 44 45 45 48 47 48 47 45 43 47 51 54 57 59 61 58 55 59 54 57 53 60 68 73
45 47 47 46 48 50 51 51 53 52 50 47 47 46 45 45 45 45 46 46 49 51 52 51 50 52 50 49 49 52 54 57 58 61 55 54 56 54 57 54 59 69 72
45 42 43 44 46 46 46 48 48 49 48 49 48 47 47 47 47 48 49 49 51 52 55 54 52 52 51 51 51 53 54 56 60 58 51 53 51 54 56 60 63 67 70
48 46 42 42 43 43 45 47 47 47 47 49 49 50 50 49 50 51 51 51 53 52 55 55 54 52 51 51 51 54 52 55 59 55 48 47 47 53 55 58 61 61 67
51 51 47 45 44 43 46 46 47 46 47 48 49 50 49 47 48 51 52 54 52 52 53 53 52 52 53 53 53 54 50 55 56 49 45 43 45 51 55 57 58 61 65
57 50 49 49 48 48 48 49 47 47 48 48 49 48 46 41 42 49 51 49 40 42 48 49 52 54 57 54 50 51 48 51 50 43 42 39 44 49 53 55 56 59 65
60 58 54 51 48 48 47 45 44 44 45 46 45 43 45 43 47 45 37 27 28 35 38 40 48 52 50 44 44 43 43 44 44 42 39 40 43 48 52 55 54 58 66
60 61 62 58 57 53 52 51 52 52 51 51 51 53 52 51 42 36 34 33 33 35 37 42 44 47 48 35 27 32 33 39 43 42 39 39 43 45 52 52 50 57 67
63 60 65 66 63 61 61 60 59 54 53 57 56 55 52 45 41 40 39 38 42 40 32 34 39 42 39 27 23 29 33 35 44 41 38 38 42 46 52 48 54 56 65
64 63 63 60 63 58 55 54 53 51 50 48 47 49 46 48 43 42 44 49 42 30 23 28 35 36 35 34 32 33 34 35 41 39 39 39 41 45 47 49 54 58 64
57 54 52 51 52 54 53 54 50 49 47 43 43 43 46 46 44 46 47 49 39 35 32 36 36 36 38 37 34 31 34 36 37 39 41 41 43 46 47 53 55 56 63
48 43 48 50 54 56 54 52 51 48 46 41 37 44 51 48 49 47 46 44 40 41 41 41 43 41 37 37 36 35 35 36 36 35 41 46 45 48 50 52 53 54 62
60 52 49 50 50 54 55 56 53 49 46 41 39 42 45 50 58 54 49 51 52 42 46 47 46 45 44 43 45 44 41 33 35 37 42 49 48 48 51 50 53 55 63
68 65 57 55 61 57 54 52 51 56 49 48 50 50 43 50 58 52 52 55 54 51 52 51 54 54 50 45 42 43 42 40 35 37 42 50 50 48 51 52 53 59 65
75 74 71 70 64 62 58 57 54 52 54 56 57 57 56 57 60 55 58 59 62 59 56 56 57 57 51 48 46 45 44 43 40 40 47 51 53 50 51 53 56 61 66
83 79 80 79 76 75 69 63 63 63 63 62 59 62 62 63 68 68 63 60 63 65 65 63 65 58 53 52 49 48 46 46 44 44 50 51 48 50 52 55 58 62 66
87 86 83 79 77 75 75 73 71 70 75 75 72 73 74 73 76 77 73 65 63 64 67 63 56 54 50 51 50 47 48 50 50 47 45 45 47 49 54 57 61 64 66
Wind_Direction
223 219 217 219 227 229 235 239 237 240 258 303 345 1 1 5 8 7 9 11 10 13 12 6 5 8 10 11 11 10 8 7 6 3 356 358 1 358 358 3 2 355 342
225 223 219 220 225 232 236 241 242 242 249 263 294 332 346 350 357 0 359 3 4 7 10 7 2 2 6 5 5 8 6 6 2 1 358 358 355 357 358 360 351 5 353
226 225 222 221 224 230 236 244 247 247 249 259 271 299 322 333 341 348 353 354 357 359 1 2 1 359 359 359 360 1 0 4 2 357 356 356 355 355 358 360 3 3 356
223 226 225 222 223 226 231 239 246 249 249 256 268 286 302 316 326 334 343 344 348 350 352 353 351 352 353 353 352 354 354 358 357 357 355 354 355 358 356 356 1 2 354
224 226 225 226 225 225 230 234 239 244 249 254 265 277 290 304 312 319 328 333 338 342 344 345 345 345 344 345 346 350 348 349 350 353 353 352 353 351 355 354 354 359 354
226 228 226 227 228 226 228 233 237 241 246 252 260 270 282 293 301 308 315 321 327 331 335 338 339 339 339 340 340 346 344 344 346 348 349 348 351 350 352 352 349 352 357
229 228 229 229 231 230 231 235 239 242 247 252 257 264 273 282 292 300 307 313 317 321 324 329 331 335 335 337 335 339 341 343 343 342 345 345 347 351 350 351 350 349 352
232 229 231 229 230 232 233 236 241 244 247 253 258 264 271 276 284 292 299 306 310 314 317 321 323 328 329 331 330 334 336 339 339 340 342 342 344 350 352 348 346 347 350
228 229 229 229 229 232 232 235 240 245 249 253 258 266 272 277 283 289 294 298 302 307 309 314 316 319 324 326 326 330 334 336 337 337 338 341 342 347 350 348 344 346 344
232 232 233 232 232 231 234 237 239 244 249 255 260 264 270 276 281 285 289 293 296 300 302 309 311 313 318 320 322 326 331 333 334 335 337 338 340 346 349 348 340 346 348
233 234 235 237 239 238 237 239 242 244 249 253 258 263 267 273 276 281 285 288 293 297 299 304 308 311 314 316 320 323 328 330 331 334 336 336 342 347 343 347 337 346 348
231 235 237 239 239 239 241 242 245 247 250 255 259 263 267 271 275 277 281 285 289 293 296 300 304 307 311 314 318 320 325 327 329 333 333 335 340 345 343 342 342 347 348
235 231 234 236 236 236 239 242 244 246 248 253 259 263 265 269 273 276 281 283 285 289 292 297 301 304 305 310 312 316 321 323 326 330 332 333 336 344 343 343 343 346 347
234 233 232 235 238 236 240 243 244 246 248 250 254 257 261 265 272 278 279 280 285 289 289 294 297 299 300 305 309 314 316 319 325 330 333 331 336 341 340 343 343 345 346
231 231 235 238 240 239 240 245 247 247 249 252 255 257 263 268 277 282 282 285 289 290 292 295 296 297 301 307 307 309 313 318 325 330 333 334 337 339 342 343 341 346 348
229 234 234 236 241 240 240 242 249 255 257 256 257 262 267 274 283 281 284 281 287 288 291 295 295 299 302 302 304 306 312 322 331 332 334 336 336 334 341 340 341 345 347
227 234 235 236 238 240 241 243 245 250 254 257 260 265 270 277 277 273 273 278 286 285 286 292 295 293 292 294 302 313 324 334 336 334 335 335 333 332 340 338 339 343 347
234 233 237 236 240 242 246 252 253 254 256 256 260 265 270 270 272 267 273 284 292 291 285 288 289 287 288 279 296 309 322 331 331 333 333 334 335 335 341 338 338 340 347
237 235 241 243 245 248 248 252 254 255 257 256 258 262 266 269 265 262 276 286 289 279 283 299 302 297 284 276 279 297 312 321 326 331 329 333 333 329 337 334 335 338 344
238 239 243 243 242 244 251 254 257 258 257 258 261 263 264 265 260 260 273 283 279 267 286 298 302 299 293 285 287 297 311 314 322 327 329 330 329 328 332 333 335 340 338
217 226 237 240 244 248 249 253 253 256 256 263 273 268 264 266 263 266 278 271 281 274 280 292 295 297 292 281 282 293 305 308 319 323 327 325 322 322 328 330 334 339 339
214 209 218 231 237 244 248 250 253 252 254 259 258 264 266 269 269 269 271 274 277 273 280 289 299 290 291 287 280 286 298 301 310 316 326 325 319 319 323 327 331 336 339
219 215 216 217 231 231 231 234 239 242 243 247 250 251 252 263 267 263 270 274 271 269 278 288 293 295 288 289 285 284 286 293 301 308 316 320 321 317 320 323 328 333 335
221 220 220 222 222 226 226 232 235 240 237 238 239 237 241 243 249 255 258 259 261 266 276 282 290 291 285 282 281 282 286 286 291 301 309 313 316 315 315 318 327 332 332
226 228 227 225 230 234 233 231 242 244 241 245 246 245 246 247 249 250 254 256 259 266 274 278 284 282 281 280 280 280 283 284 288 295 302 307 308 312 312 316 322 326 328
228 227 228 232 233 234 233 239 244 247 247 249 252 249 249 251 254 256 257 258 265 270 273 279 280 281 278 277 279 280 280 283 284 287 293 298 303 309 311 314 317 321 325
Height
10988 10991 10994 10997 11000 11003 11005 11006 11006 11006 11006 11006 11005 11005 11004 11002 11000 10996 10993 10991 10987 10983 10978 10972 10967 10962 10956 10950 10945 10940 10934 10927 10920 10914 10906 10897 10888 10880 10872 10862 10854 10845 10835
10981 10984 10987 10991 10995 10998 11001 11002 11004 11004 11004 11004 11003 11004 11003 11001 10998 10996 10992 10990 10986 10983 10978 10974 10968 10963 10958 10952 10946 10941 10936 10927 10919 10912 10905 10896 10889 10880 10869 10861 10854 10844 10835
10975 10978 10982 10985 10989 10992 10996 10999 11001 11001 11001 11002 11001 11001 11001 10999 10997 10995 10991 10988 10985 10982 10978 10974 10969 10964 10958 10950 10945 10940 10933 10924 10918 10912 10906 10896 10887 10878 10870 10859 10849 10839 10829
10967 10972 10975 10978 10981 10986 10990 10994 10996 10998 10998 10999 10999 10998 10998 10997 10995 10993 10989 10985 10982 10980 10976 10972 10967 10961 10955 10949 10943 10937 10931 10925 10917 10910 10902 10894 10884 10877 10866 10855 10843 10835 10826
10958 10963 10967 10970 10975 10980 10984 10987 10990 10992 10994 10994 10995 10995 10995 10994 10993 10990 10987 10983 10979 10976 10972 10968 10964 10959 10953 10947 10942 10934 10926 10920 10913 10906 10899 10891 10881 10871 10860 10851 10841 10829 10819
10951 10955 10958 10964 10969 10973 10977 10980 10984 10986 10988 10989 10990 10991 10991 10990 10988 10986 10983 10980 10977 10972 10968 10964 10960 10955 10950 10942 10936 10931 10924 10917 10909 10903 10895 10886 10876 10865 10856 10847 10836 10824 10814
10941 10945 10952 10957 10962 10966 10970 10974 10977 10979 10982 10983 10985 10985 10986 10985 10983 10981 10978 10976 10972 10968 10964 10960 10955 10950 10944 10939 10931 10922 10918 10912 10905 10898 10889 10880 10872 10862 10852 10843 10832 10821 10808
10930 10936 10942 10946 10951 10956 10962 10966 10969 10971 10975 10977 10979 10979 10980 10980 10978 10976 10974 10971 10967 10962 10959 10956 10951 10948 10942 10936 10929 10922 10914 10906 10899 10894 10885 10876 10866 10857 10848 10838 10828 10817 10804
10919 10923 10927 10932 10938 10944 10951 10955 10958 10964 10967 10969 10973 10974 10973 10973 10972 10971 10968 10964 10961 10957 10953 10952 10947 10943 10938 10931 10924 10917 10912 10906 10898 10889 10880 10871 10861 10854 10845 10835 10828 10814 10808
10907 10913 10920 10926 10930 10936 10940 10944 10948 10954 10959 10962 10965 10966 10965 10965 10965 10964 10963 10958 10954 10952 10945 10946 10941 10937 10933 10928 10921 10912 10907 10900 10894 10887 10876 10867 10858 10849 10841 10831 10824 10812 10798
10904 10910 10915 10921 10924 10929 10933 10937 10942 10946 10950 10953 10955 10956 10957 10956 10956 10955 10955 10953 10947 10946 10941 10939 10936 10929 10926 10920 10914 10907 10901 10895 10890 10880 10870 10863 10853 10845 10838 10829 10821 10806 10791
10894 10900 10906 10911 10914 10920 10925 10929 10934 10938 10942 10943 10945 10946 10947 10947 10947 10946 10945 10945 10942 10939 10933 10931 10929 10925 10920 10914 10908 10901 10896 10889 10882 10875 10865 10858 10848 10841 10834 10823 10813 10799 10788
10885 10889 10895 10900 10905 10911 10916 10919 10923 10927 10931 10933 10935 10935 10936 10937 10935 10935 10936 10935 10932 10932 10925 10923 10920 10919 10914 10910 10903 10896 10890 10883 10877 10868 10859 10851 10843 10836 10828 10821 10811 10799 10785
10874 10880 10885 10890 10895 10901 10905 10909 10912 10915 10918 10920 10922 10923 10923 10926 10926 10925 10924 10922 10922 10921 10918 10915 10912 10910 10906 10903 10896 10891 10885 10877 10871 10861 10852 10845 10837 10830 10823 10815 10805 10794 10783
10862 10869 10876 10880 10885 10890 10893 10896 10901 10904 10907 10909 10911 10912 10914 10916 10916 10915 10913 10914 10912 10911 10908 10907 10903 10900 10897 10896 10890 10883 10879 10872 10865 10855 10847 10840 10833 10826 10820 10811 10801 10791 10779
10851 10857 10863 10869 10874 10878 10882 10886 10890 10893 10896 10899 10901 10904 10904 10906 10907 10906 10905 10905 10902 10900 10899 10897 10895 10890 10886 10885 10882 10877 10872 10866 10858 10849 10841 10835 10829 10822 10815 10807 10798 10787 10775
10840 10844 10851 10856 10862 10867 10871 10875 10879 10881 10885 10888 10890 10892 10893 10898 10896 10897 10896 10896 10893 10891 10888 10885 10884 10881 10875 10874 10873 10870 10865 10859 10853 10844 10836 10830 10824 10818 10810 10802 10792 10783 10774
10829 10833 10837 10843 10850 10855 10860 10863 10867 10871 10874 10876 10879 10881 10883 10884 10886 10885 10886 10885 10882 10880 10877 10875 10873 10870 10866 10865 10864 10861 10859 10853 10847 10839 10831 10826 10820 10812 10804 10799 10791 10782 10770
10816 10821 10828 10835 10839 10844 10848 10852 10856 10860 10863 10865 10869 10869 10871 10870 10872 10873 10873 10874 10872 10869 10866 10865 10863 10860 10857 10856 10854 10853 10849 10845 10840 10834 10827 10821 10815 10808 10801 10794 10786 10776 10766
10801 10810 10817 10823 10827 10832 10837 10839 10845 10849 10850 10852 10855 10855 10855 10855 10858 10860 10861 10860 10861 10859 10857 10856 10853 10851 10848 10847 10848 10844 10841 10837 10831 10826 10820 10815 10809 10803 10796 10787 10781 10773 10763
10785 10794 10802 10808 10813 10819 10823 10826 10830 10834 10836 10842 10845 10840 10834 10841 10846 10848 10849 10849 10849 10849 10848 10846 10846 10842 10839 10838 10837 10835 10832 10828 10823 10819 10813 10809 10803 10796 10791 10783 10776 10768 10760
10769 10773 10780 10790 10798 10802 10805 10810 10814 10821 10824 10828 10830 10832 10834 10835 10831 10838 10838 10838 10837 10837 10836 10835 10834 10833 10831 10827 10826 10824 10823 10819 10815 10810 10805 10802 10796 10789 10784 10777 10769 10762 10756
10754 10759 10764 10769 10775 10781 10787 10790 10794 10801 10808 10812 10817 10820 10826 10824 10818 10823 10824 10824 10823 10822 10823 10823 10821 10820 10820 10817 10814 10814 10812 10809 10805 10802 10797 10794 10789 10782 10776 10771 10764 10756 10750
10735 10741 10747 10752 10757 10764 10769 10774 10780 10783 10786 10790 10795 10798 10803 10806 10804 10805 10806 10808 10808 10808 10809 10808 10808 10808 10806 10805 10802 10802 10800 10797 10795 10791 10787 10784 10780 10774 10769 10764 10756 10749 10741
10717 10726 10732 10734 10739 10746 10752 10757 10763 10768 10772 10774 10777 10783 10785 10786 10787 10791 10792 10794 10794 10795 10796 10795 10796 10795 10793 10791 10789 10788 10787 10785 10783 10781 10777 10774 10770 10765 10759 10755 10749 10741 10735
10696 10703 10710 10715 10721 10726 10732 10738 10743 10747 10751 10755 10758 10762 10764 10767 10768 10771 10773 10777 10779 10781 10781 10782 10782 10782 10780 10778 10777 10775 10774 10773 10770 10769 10767 10763 10760 10755 10750 10744 10740 10734 10728